DW1970 Bodega Bay CA US current weather conditions

sailwx.info

Wind from 360

Air temperature 11.7° C
Dewpoint 6.8° C

Last reported at 2020-Feb-21 11:45 UTC.
Time now 2020-Feb-21 12:18 UTC

Location: N 38°23' W 123°04'.
View on Google Maps.

See reports from other nearby stations

  
Tides and Currents Weather Stations Pressure Air Temp Water Temp Dewpoint Dewpoint Depression Visibility Wind Speed Wind Dir Waves Ship Positions
date/time (UTC)wind fromknots sea level pressurealtimeterstation pressurevisibilityair tempwater tempwave heightnotes
2020-Feb-21 11:45 360 11.7
2020-Feb-21 11:17 360 11.1
2020-Feb-21 11:02 360 10.6
2020-Feb-21 10:45 360 11.1
2020-Feb-21 10:31 360 11.7
2020-Feb-21 10:15 360 11.7
2020-Feb-21 10:01 360 12.2
2020-Feb-21 09:46 360 0 12.8
2020-Feb-21 09:31 350 0 12.8
2020-Feb-21 09:16 341 0 12.2
2020-Feb-21 09:00 341 12.2
2020-Feb-21 08:46 341 0 12.2
2020-Feb-21 08:30 271 12.2
2020-Feb-21 08:16 271 12.2
2020-Feb-21 08:00 271 12.2
2020-Feb-21 07:45 271 11.7
2020-Feb-21 07:30 271 11.7
2020-Feb-21 07:16 271 11.7
2020-Feb-21 07:00 271 11.7
2020-Feb-21 06:45 271 12.2
2020-Feb-21 06:30 271 12.2
2020-Feb-21 06:15 271 12.2
2020-Feb-21 06:00 271 11.7
2020-Feb-21 05:45 271 11.7
2020-Feb-21 05:15 271 11.7
2020-Feb-21 05:00 271 12.2
2020-Feb-21 04:45 271 12.2
2020-Feb-21 04:30 271 11.7
2020-Feb-21 04:15 271 11.1
2020-Feb-21 04:00 271 11.1
2020-Feb-21 03:45 271 11.1
2020-Feb-21 03:30 271 11.1
2020-Feb-21 03:15 271 11.1
2020-Feb-21 03:00 271 11.1
2020-Feb-21 02:48 271 10.6
2020-Feb-21 02:31 271 10.6
2020-Feb-21 02:16 271 0 10.6
2020-Feb-21 02:02 271 10.6
2020-Feb-21 01:47 271 11.1
2020-Feb-21 01:16 271 11.7
2020-Feb-21 01:02 271 11.7
2020-Feb-21 00:47 271 12.2
2020-Feb-21 00:32 271 12.8
2020-Feb-21 00:17 271 12.8
2020-Feb-21 00:01 271 12.8
2020-Feb-20 23:46 271 12.8
2020-Feb-20 23:31 271 12.8
2020-Feb-20 23:16 271 12.8
2020-Feb-20 23:01 271 13.3
2020-Feb-20 22:47 271 13.3
2020-Feb-20 22:31 271 0 12.8
2020-Feb-20 22:17 271 13.3
2020-Feb-20 21:46 271 0 13.3
2020-Feb-20 21:30 271 1 13.3
2020-Feb-20 21:15 216 0 13.3
2020-Feb-20 21:00 215 0 13.3
2020-Feb-20 20:45 209 2 13.9
2020-Feb-20 20:30 174 1 15.0
2020-Feb-20 20:15 164 0 15.0
2020-Feb-20 20:00 192 0 15.0
2020-Feb-20 19:45 188 14.4
2020-Feb-20 19:30 165 14.4
2020-Feb-20 19:15 150 0 13.9
2020-Feb-20 19:00 146 13.3
2020-Feb-20 18:45 117 12.8
2020-Feb-20 18:30 117 12.2
2020-Feb-20 18:15 117 11.7
2020-Feb-20 18:00 117 11.7
2020-Feb-20 17:45 117 11.7
2020-Feb-20 17:30 117 0 13.3
2020-Feb-20 17:16 081 12.8
2020-Feb-20 17:01 106 11.7
2020-Feb-20 16:46 107 10.6
2020-Feb-20 16:32 107 10.6
2020-Feb-20 16:17 107 11.1
2020-Feb-20 16:01 107 1 11.7
2020-Feb-20 15:46 093 4 11.1
2020-Feb-20 15:31 087 4 10.6
2020-Feb-20 15:16 087 0 9.4
2020-Feb-20 15:02 080 3 8.9
2020-Feb-20 14:46 309 0 7.8
2020-Feb-20 14:31 304 7.8
2020-Feb-20 14:16 294 7.8
2020-Feb-20 14:01 293 7.8
2020-Feb-20 13:45 293 8.3
2020-Feb-20 13:31 293 8.3
2020-Feb-20 13:15 293 8.9
2020-Feb-20 13:00 293 8.9
2020-Feb-20 12:46 292 9.4
2020-Feb-20 12:31 312 0 10.0
2020-Feb-20 12:17 340 0 12.2
2020-Feb-20 12:00 082 3 12.8
2020-Feb-20 11:45 084 5 12.8
2020-Feb-20 11:31 091 4 12.8
2020-Feb-20 11:02 088 4 12.8
2020-Feb-20 10:46 084 4 12.8
2020-Feb-20 10:31 075 5 13.3
2020-Feb-20 10:17 080 5 12.8
2020-Feb-20 10:01 084 4 12.2
2020-Feb-20 09:47 087 3 11.7
2020-Feb-20 09:31 154 1 11.1
2020-Feb-20 09:15 219 0 10.0
2020-Feb-20 09:01 240 0 9.4
2020-Feb-20 08:46 240 8.3
2020-Feb-20 08:32 240 8.3
2020-Feb-20 08:16 240 8.3
2020-Feb-20 08:01 240 8.3
2020-Feb-20 07:46 240 8.9
2020-Feb-20 07:31 240 9.4
2020-Feb-20 07:16 240 8.9
2020-Feb-20 07:01 240 8.3
2020-Feb-20 06:45 240 7.8
2020-Feb-20 06:32 240 8.3
2020-Feb-20 06:16 240 8.3
2020-Feb-20 06:00 240 8.9
2020-Feb-20 05:47 240 8.3
2020-Feb-20 05:31 240 8.3
2020-Feb-20 05:15 240 7.8
2020-Feb-20 05:01 240 7.8
2020-Feb-20 04:46 240 8.3
2020-Feb-20 04:30 240 8.9
2020-Feb-20 04:16 240 8.9
2020-Feb-20 04:00 240 9.4
2020-Feb-20 03:45 240 9.4
2020-Feb-20 03:31 240 9.4
2020-Feb-20 03:15 240 0 9.4
2020-Feb-20 03:00 240 9.4
2020-Feb-20 02:46 240 10.0
2020-Feb-20 02:30 240 10.0
2020-Feb-20 02:16 240 10.0
2020-Feb-20 02:00 240 10.0
2020-Feb-20 01:46 240 10.6
2020-Feb-20 01:31 240 11.1
2020-Feb-20 01:15 240 11.1
2020-Feb-20 01:00 240 12.2
2020-Feb-20 00:45 240 12.8
2020-Feb-20 00:30 240 13.3
2020-Feb-20 00:15 240 13.3
2020-Feb-20 00:00 240 14.4
2020-Feb-19 23:45 240 13.9
2020-Feb-19 23:30 240 13.9
2020-Feb-19 23:15 240 13.3
2020-Feb-19 23:00 240 0 13.3
2020-Feb-19 22:45 240 12.8
2020-Feb-19 22:30 240 13.3
2020-Feb-19 22:16 240 12.8
2020-Feb-19 22:00 240 12.8
2020-Feb-19 21:30 240 0 12.2
2020-Feb-19 21:15 234 0 12.2
2020-Feb-19 21:00 217 0 12.8
2020-Feb-19 20:45 209 1 13.3
2020-Feb-19 20:30 205 1 12.8
2020-Feb-19 20:15 198 2 13.3
2020-Feb-19 20:00 240 0 13.3
2020-Feb-19 19:47 244 0 13.9
2020-Feb-19 19:31 170 1 15.0
2020-Feb-19 19:17 155 1 15.0
2020-Feb-19 19:01 121 3 15.0
2020-Feb-19 18:46 105 4 13.9
2020-Feb-19 18:31 267 0 12.2
2020-Feb-19 18:16 288 12.2
2020-Feb-19 18:01 290 12.2
2020-Feb-19 17:46 290 0 13.3
2020-Feb-19 17:31 290 12.8
2020-Feb-19 17:16 286 11.1
2020-Feb-19 17:00 286 10.0
2020-Feb-19 16:45 286 9.4
2020-Feb-19 16:31 286 8.9
2020-Feb-19 16:15 286 8.3
2020-Feb-19 16:00 286 7.8
2020-Feb-19 15:46 286 0 6.7
2020-Feb-19 15:30 284 5.6
2020-Feb-19 15:15 284 5.6
2020-Feb-19 15:00 284 5.6
2020-Feb-19 14:45 284 6.1
2020-Feb-19 14:30 284 6.7
2020-Feb-19 14:15 284 0 6.1
2020-Feb-19 14:00 284 6.1
2020-Feb-19 13:47 284 6.7
2020-Feb-19 13:30 284 6.7
2020-Feb-19 13:15 284 6.7
2020-Feb-19 13:00 284 6.7
2020-Feb-19 12:45 284 6.7
2020-Feb-19 12:31 284 6.1
2020-Feb-19 12:15 284 6.1
2020-Feb-19 12:00 284 6.1